Lancaster, OH

4:49 AM EDT on March 23, 2017 (GMT -0400)
Fairfield County

Weather History for KLHQ - October, 2011

Change the Weather History Date:

Tuesday, October 11, 2011

  Actual Average Record
Temperature  
Mean Temperature 59 °F -  
Max Temperature 75 °F 66 °F 85 °F (1954)
Min Temperature 45 °F 41 °F 28 °F (1957)
Degree Days  
Heating Degree Days 6    
Growing Degree Days 9 (Base 50)    
Moisture  
Dew Point 50 °F    
Average Humidity 76    
Maximum Humidity 97    
Minimum Humidity 46    
Precipitation  
Precipitation 0.00 in - - ()
Sea Level Pressure  
Sea Level Pressure 30.07 in    
Wind  
Wind Speed 2 mph (SE)    
Max Wind Speed 12 mph    
Max Gust Speed 18 mph    
Visibility 9 miles    
Events      
Averages and records for this station are not official NWS values.
T = Trace of Precipitation, MM = Missing Value Source: NWS Daily Summary

Daily Weather History Graph

Daily Weather History Graph

Search for Another Location

Airport or City:

Trip Planner

Search our weather history database for the weather conditions in past years. The results will help you decide how hot, cold, wet, or windy it might be!

Date:

Astronomy

Oct. 11, 2011 Rise Set
Actual Time 7:36 AM EDT 6:57 PM EDT
Civil Twilight 7:09 AM EDT 7:24 PM EDT
Nautical Twilight 6:38 AM EDT 7:55 PM EDT
Astronomical Twilight 6:06 AM EDT 8:27 PM EDT
Moon 6:29 PM EDT (10/11) 7:13 AM EDT (10/11)
Length of Visible Light 12h 15m
Length of Day
11h 21m
Full, 100% of the Moon is Illuminated
Oct 11
Full
Oct 11
Full
Oct 19
Last Quarter
Oct 26
New
Nov 2
First Quarter

Hourly Weather History & Observations

Time (EDT) Temp. Dew Point Humidity Pressure Visibility Wind Dir Wind Speed Gust Speed Precip Events Conditions
12:53 AM 46.9 °F 46.0 °F 97% 30.13 in 9.0 mi Calm Calm - N/A   Clear
1:53 AM 46.9 °F 45.0 °F 93% 30.12 in 7.0 mi Calm Calm - N/A   Clear
2:53 AM 45.0 °F 44.1 °F 97% 30.12 in 5.0 mi Calm Calm - N/A   Clear
3:53 AM 45.0 °F 43.0 °F 93% 30.10 in 6.0 mi Calm Calm - N/A   Clear
4:53 AM 46.0 °F 45.0 °F 96% 30.11 in 7.0 mi Calm Calm - N/A   Clear
6:53 AM 48.9 °F 48.0 °F 97% 30.11 in 5.0 mi Calm Calm - N/A   Clear
8:53 AM 53.1 °F 52.0 °F 96% 30.13 in 5.0 mi Calm Calm - N/A   Clear
10:53 AM 62.1 °F 53.1 °F 72% 30.12 in 10.0 mi SSE 3.5 mph - N/A   Clear
11:53 AM 66.0 °F 52.0 °F 60% 30.12 in 10.0 mi SSE 5.8 mph - N/A   Clear
12:53 PM 69.1 °F 53.1 °F 57% 30.11 in 10.0 mi SE 9.2 mph - N/A   Clear
1:53 PM 72.0 °F 50.0 °F 46% 30.07 in 10.0 mi SSE 11.5 mph 18.4 mph N/A   Clear
2:53 PM 73.9 °F 52.0 °F 46% 30.05 in 10.0 mi SE 11.5 mph - N/A   Clear
4:53 PM 71.1 °F 51.1 °F 49% 30.02 in 10.0 mi ESE 6.9 mph - N/A   Overcast
5:53 PM 69.1 °F 52.0 °F 54% 30.02 in 10.0 mi East 4.6 mph - N/A   Overcast
6:53 PM 66.9 °F 50.0 °F 54% 30.01 in 10.0 mi East 5.8 mph - N/A   Mostly Cloudy
7:53 PM 61.0 °F 52.0 °F 72% 30.01 in 10.0 mi Calm Calm - N/A   Partly Cloudy
8:53 PM 57.0 °F 51.1 °F 81% 30.01 in 10.0 mi Calm Calm - N/A   Clear
9:53 PM 55.0 °F 51.1 °F 86% 30.01 in 10.0 mi Calm Calm - N/A   Clear
10:53 PM 55.0 °F 52.0 °F 89% 30.00 in 10.0 mi Calm Calm - N/A   Partly Cloudy
11:53 PM 55.9 °F 53.1 °F 90% 30.00 in 10.0 mi Calm Calm - N/A   Overcast